Wetbulb
53.66 53.56 53.53 53.43 53.18 53.21 53.04 52.97 52.77 52.67 52.88 53.02 52.91 52.67 52.45 52.22 52.23 52.23 52.19 52.31 52.15 51.55 50.91 51.05 50.70 50.14 44.57 36.36 36.49 45.49 50.35 48.77 45.45 44.11 40.62 38.22 34.38 33.42 30.97 36.24 40.14 40.58 43.58 46.56 48.42 48.73 49.87
53.22 53.47 53.82 53.23 53.30 52.93 52.96 52.92 52.68 52.51 52.63 52.85 52.59 52.18 51.94 51.80 51.90 51.84 51.81 51.72 51.56 50.94 50.91 50.51 49.85 49.27 39.74 30.35 43.00 45.31 45.44 44.67 43.03 40.83 38.87 39.47 36.61 37.41 33.35 33.86 35.39 40.81 42.59 44.01 46.37 46.61 48.55
53.30 53.10 52.82 53.04 52.79 52.83 52.82 52.69 52.38 52.36 52.42 52.49 52.24 51.71 51.42 51.46 51.68 51.74 51.60 51.28 51.05 50.50 50.23 50.21 49.46 46.24 38.24 35.17 43.13 43.59 43.54 42.74 42.81 40.56 36.99 39.90 40.69 37.20 36.37 33.96 37.65 38.07 35.41 38.79 41.32 44.97 45.18
52.96 52.88 52.81 52.76 52.74 52.66 52.57 52.45 52.34 52.22 52.21 52.01 51.83 51.50 51.20 51.26 51.42 51.22 50.95 50.83 50.57 49.95 49.36 50.11 49.67 42.32 34.10 44.58 42.74 42.33 42.42 40.23 40.89 41.16 40.51 41.13 41.33 37.99 35.89 36.73 34.82 33.31 34.98 30.54 37.96 42.87 44.87
52.61 52.59 52.63 52.89 52.66 52.53 52.60 52.38 52.21 52.15 51.99 51.67 51.46 51.13 50.97 51.25 51.13 50.41 50.48 50.03 49.26 48.23 48.17 47.33 39.13 35.76 29.97 43.79 37.59 39.19 37.56 36.18 38.30 39.74 40.45 42.70 40.19 35.04 34.96 30.30 26.23 30.47 27.02 29.61 33.67 41.45 42.41
52.82 52.68 52.45 52.43 52.54 52.51 52.31 52.30 51.97 51.97 51.66 51.40 51.01 50.54 50.62 50.98 50.42 50.58 49.52 48.03 47.19 43.51 42.49 42.45 40.60 29.69 34.53 32.93 37.82 38.69 39.08 38.73 36.06 35.92 35.93 35.76 34.64 31.12 30.43 27.19 17.52 22.82 25.89 29.87 31.33 37.76 41.58
52.24 52.50 52.43 52.31 52.20 52.14 52.26 51.97 51.75 51.61 51.34 50.92 50.64 50.48 50.36 50.63 50.75 50.55 42.62 36.11 32.73 31.11 33.59 29.05 30.84 31.67 34.34 38.54 40.14 37.23 39.55 35.64 34.96 32.74 23.17 29.72 25.53 22.59 25.91 28.24 28.10 27.34 28.51 27.60 32.53 38.84 38.35
51.96 52.25 52.10 52.07 52.04 51.89 51.72 51.58 51.42 51.22 51.01 50.76 50.58 50.26 50.38 50.69 50.50 48.44 38.57 32.98 33.49 34.88 26.55 34.45 34.49 34.89 37.38 37.57 31.47 34.75 38.15 30.62 28.33 23.09 26.17 22.69 20.54 27.24 29.24 29.72 28.20 27.05 25.09 28.22 32.58 38.64 38.66
52.11 51.93 51.98 51.60 51.55 51.79 51.43 51.25 50.95 50.98 50.83 50.56 51.35 50.63 50.25 50.55 49.81 39.43 34.89 35.41 39.77 37.73 27.20 30.34 35.08 33.88 33.35 35.24 30.63 31.03 34.58 31.20 26.30 22.97 23.08 18.46 23.91 29.00 27.71 29.12 26.26 25.41 24.58 26.52 29.74 35.71 39.22
51.77 51.60 51.65 51.40 51.32 51.11 51.00 51.36 51.06 51.06 51.50 51.30 51.13 50.96 50.17 51.31 38.83 36.63 33.36 39.50 39.52 37.00 20.65 25.42 28.83 32.21 34.03 33.69 28.53 36.01 35.79 30.74 26.82 22.71 23.79 22.06 28.80 25.86 24.30 27.03 26.77 20.51 29.64 29.97 29.99 30.81 28.19
51.54 51.35 50.99 51.07 50.72 50.54 50.45 50.74 50.54 51.16 51.17 50.75 50.53 50.91 50.07 50.41 38.85 32.96 36.93 39.86 38.71 32.40 0.18 25.81 28.12 37.11 34.21 28.84 29.45 30.41 35.62 30.75 23.50 22.70 20.30 19.32 21.72 21.75 22.73 27.45 29.60 25.41 30.90 30.52 30.40 28.23 32.26
51.65 51.51 50.86 50.58 50.65 50.16 50.31 50.52 50.82 51.13 50.82 50.28 50.21 50.48 50.24 42.80 35.44 36.67 38.49 39.05 34.21 17.87 -0.59 21.12 27.67 26.08 25.87 28.09 27.72 30.33 30.52 32.33 31.36 24.73 24.92 23.19 28.09 26.26 27.32 32.72 31.06 34.09 31.18 31.04 31.39 31.05 24.15
51.67 51.19 51.40 50.65 50.34 49.89 50.86 51.26 51.13 50.60 50.31 50.01 50.02 49.62 46.55 43.00 34.01 39.30 37.27 31.17 15.96 6.81 23.39 20.41 21.60 25.13 24.12 22.87 23.95 24.99 24.22 20.63 19.13 16.28 16.88 21.22 22.69 29.23 28.77 28.19 30.99 29.81 25.41 19.64 19.58 22.68 21.61
51.63 51.65 51.44 51.26 50.10 49.82 49.89 50.66 50.77 50.06 50.06 49.66 49.47 47.53 42.83 40.97 40.32 37.40 30.79 22.01 6.03 19.17 18.53 25.47 24.24 23.91 19.80 22.44 22.21 22.51 21.77 17.74 22.56 23.66 18.34 13.55 12.69 23.22 27.14 27.63 26.76 26.86 25.60 21.12 17.49 20.39 22.87
51.62 51.57 51.43 51.10 51.03 50.44 49.88 49.75 50.25 49.95 49.65 49.37 47.49 38.73 36.48 39.19 40.23 33.95 24.98 12.06 13.99 19.64 23.49 22.03 22.44 18.09 17.49 21.42 20.64 19.27 18.37 16.93 22.61 24.44 16.91 14.27 15.30 26.61 27.16 28.21 28.66 29.37 25.32 31.32 25.47 25.93 22.20
51.62 51.40 52.11 51.87 51.64 50.99 50.10 49.66 49.56 49.80 49.38 49.23 38.88 33.64 34.07 39.66 36.93 30.94 21.32 19.56 20.47 25.86 25.94 24.04 15.17 18.41 13.73 17.52 16.41 15.43 16.21 20.24 21.74 25.80 27.22 20.59 13.36 23.37 25.48 30.09 31.93 31.88 34.77 25.75 26.77 19.61 18.60
51.29 51.50 51.56 51.27 51.68 51.01 50.29 49.78 49.39 49.89 49.50 48.26 34.14 28.31 35.59 38.31 34.41 25.93 15.49 16.05 23.62 28.05 27.36 22.28 17.28 17.35 17.24 17.15 17.68 15.45 17.45 22.42 24.54 23.66 26.55 23.60 16.18 18.67 25.17 21.46 18.87 24.89 22.80 24.50 30.19 27.62 21.72
50.06 50.56 50.99 51.26 51.75 51.49 50.47 49.79 49.36 48.86 49.12 43.63 33.89 22.15 34.82 34.41 24.41 22.92 18.61 20.86 29.55 25.91 27.84 25.18 23.23 21.96 19.98 19.50 17.02 16.51 17.53 19.94 25.83 24.35 22.06 24.17 19.18 14.73 19.24 24.51 23.35 17.85 13.08 17.60 21.18 23.43 23.22
50.18 50.16 50.09 50.94 51.35 51.47 50.60 49.84 49.31 48.59 48.06 38.60 32.06 28.49 35.58 31.80 17.03 18.80 22.61 24.61 26.82 25.34 24.93 24.27 22.27 24.52 23.86 18.86 10.56 17.52 18.69 24.74 25.27 23.10 22.55 22.80 16.47 12.55 12.65 19.64 18.85 14.66 13.42 13.98 15.97 20.68 19.99
49.82 49.84 49.94 50.56 50.95 51.05 51.20 49.91 49.27 48.59 47.53 36.39 26.23 19.71 26.90 25.93 25.08 18.92 19.08 21.59 21.58 27.93 25.67 25.69 23.78 24.30 20.64 18.00 19.55 13.52 16.26 23.67 24.94 24.21 30.69 25.09 19.63 14.90 6.40 8.44 12.70 8.07 10.02 12.78 18.38 19.34 16.52
49.96 49.80 49.86 49.95 50.45 50.76 51.03 50.52 49.59 48.16 46.67 33.65 25.26 20.40 26.07 19.28 22.86 22.63 20.61 22.02 21.45 20.25 24.81 24.72 21.48 22.30 18.98 15.90 15.68 16.47 19.82 20.64 23.63 26.44 22.30 19.98 14.34 15.43 14.91 14.96 13.13 10.40 9.49 7.52 7.34 10.62 12.30
49.70 50.10 50.26 50.19 49.72 50.27 50.52 50.69 49.91 47.79 45.35 32.50 23.74 26.69 27.28 23.94 24.20 21.00 20.83 19.09 22.09 22.69 20.76 20.21 20.78 22.22 19.09 11.75 17.36 15.98 18.61 19.77 19.07 20.01 13.30 16.58 14.74 19.07 13.44 16.66 14.16 8.16 9.55 8.09 6.14 6.25 7.66
49.44 49.98 50.47 50.67 50.30 50.49 50.36 50.33 50.41 47.95 43.83 37.42 36.81 37.42 33.09 23.93 21.05 19.21 19.33 22.04 22.76 24.06 25.11 25.83 23.76 20.47 19.62 21.82 24.13 24.28 24.17 21.63 18.57 17.72 14.01 5.43 8.19 11.01 12.34 16.89 15.49 5.11 6.50 7.51 5.16 5.76 6.23
49.01 49.61 50.59 51.06 50.84 50.65 50.44 50.46 50.71 49.25 44.68 41.33 39.29 36.80 27.69 17.94 22.07 22.76 24.22 24.45 23.18 23.71 23.32 26.03 23.94 20.59 24.95 28.54 26.57 25.32 21.42 15.58 17.25 15.95 15.73 9.26 3.05 14.77 7.77 8.52 -2.68 7.53 13.14 10.05 5.51 6.30 7.34
48.67 49.26 50.33 50.60 50.50 50.75 50.55 50.65 50.73 50.01 47.47 42.05 41.49 36.34 30.14 22.21 24.19 24.34 24.79 23.52 23.55 23.71 22.85 23.61 24.79 25.93 26.93 23.24 20.38 15.68 13.99 16.24 17.44 17.29 13.67 5.91 5.24 8.57 1.95 -3.22 2.39 8.24 9.46 7.44 6.56 2.90 8.66
48.34 49.30 50.29 50.93 50.86 50.73 50.61 50.60 50.68 50.41 48.93 44.32 41.77 40.93 35.28 23.25 19.53 25.26 25.03 22.96 20.26 18.05 20.00 23.37 27.07 27.49 25.19 22.49 17.40 3.48 5.14 8.26 9.65 13.48 17.75 17.51 7.66 4.68 3.01 -3.76 -7.27 -0.43 4.28 9.77 12.05 3.15 9.04
48.25 49.07 50.19 50.87 50.91 50.69 50.59 50.49 50.45 50.57 48.07 44.78 41.44 41.77 36.72 23.79 26.35 25.75 21.29 25.13 25.37 24.18 19.73 21.17 23.24 23.02 24.00 17.59 13.36 8.94 6.64 14.65 5.20 2.12 3.13 5.44 2.88 -3.84 -4.31 -6.26 -0.98 2.83 5.71 7.38 -0.34 -0.74 8.24
48.05 49.09 50.09 50.52 50.72 50.63 50.59 50.47 50.41 49.40 46.90 44.76 41.07 41.77 36.01 27.56 27.38 29.65 29.76 26.76 26.67 28.17 22.42 22.71 18.87 20.22 19.06 10.99 12.07 11.63 8.46 6.70 8.85 7.78 -2.02 -2.15 -4.09 -4.97 -6.04 -12.24 -4.99 9.52 7.86 -1.36 -0.52 4.11 8.28
47.95 48.55 49.89 50.13 50.31 50.36 50.34 50.43 50.18 47.76 46.35 44.13 38.47 38.74 37.67 33.75 28.69 33.07 33.73 34.74 32.71 31.06 28.75 28.21 20.39 22.08 19.24 11.69 9.13 7.00 9.26 1.75 4.33 7.87 8.01 1.61 -1.19 -3.34 -0.23 -2.93 2.11 6.65 2.41 2.66 6.81 6.57 8.47
MSLP
1023.74 1023.36 1023.06 1022.63 1022.18 1021.69 1021.24 1020.70 1020.17 1019.57 1018.96 1018.22 1017.47 1016.83 1016.18 1015.45 1014.62 1013.91 1013.31 1012.65 1012.11 1011.56 1011.19 1010.89 1010.49 1010.39 1010.78 1010.95 1010.24 1008.41 1007.89 1007.78 1007.90 1007.95 1008.29 1008.80 1009.22 1009.56 1008.32 1007.22 1005.93 1003.91 1002.25 1002.09 1001.87 1001.99 1001.79
1024.03 1023.64 1023.23 1022.72 1022.24 1021.79 1021.28 1020.67 1020.07 1019.47 1018.74 1017.94 1017.27 1016.57 1015.84 1015.14 1014.41 1013.63 1012.82 1012.15 1011.55 1011.04 1010.61 1010.13 1009.90 1010.06 1010.80 1010.58 1008.78 1008.26 1007.93 1007.76 1007.77 1007.88 1008.19 1008.49 1008.62 1008.60 1008.36 1007.48 1006.79 1004.25 1002.99 1002.44 1001.91 1001.35 1002.01
1024.22 1023.83 1023.40 1022.98 1022.47 1021.93 1021.34 1020.74 1020.12 1019.38 1018.57 1017.86 1017.13 1016.39 1015.67 1014.88 1014.02 1013.32 1012.52 1011.84 1010.98 1010.47 1010.07 1009.77 1009.59 1009.84 1010.37 1009.81 1008.33 1007.88 1007.76 1007.54 1007.33 1007.46 1007.65 1007.68 1007.87 1008.48 1008.14 1007.49 1006.43 1004.81 1004.17 1003.45 1001.83 1000.84 1001.46
1024.55 1024.05 1023.64 1023.16 1022.61 1021.98 1021.34 1020.70 1020.08 1019.34 1018.51 1017.79 1017.03 1016.26 1015.44 1014.60 1013.73 1012.94 1012.13 1011.26 1010.47 1009.91 1009.48 1008.94 1009.03 1009.49 1009.80 1008.08 1007.60 1007.71 1007.05 1006.95 1006.54 1006.38 1006.72 1006.58 1007.18 1007.49 1007.56 1007.38 1006.68 1005.15 1004.39 1002.49 1000.92 1001.45 1001.02
1024.75 1024.31 1023.89 1023.34 1022.74 1022.06 1021.33 1020.63 1019.93 1019.23 1018.54 1017.75 1016.89 1016.10 1015.20 1014.34 1013.48 1012.59 1011.77 1010.66 1009.83 1009.28 1008.93 1008.84 1009.03 1009.31 1008.88 1007.47 1007.65 1007.13 1006.57 1006.46 1005.88 1005.86 1006.07 1006.17 1006.67 1006.96 1007.02 1006.72 1006.59 1004.64 1002.64 1001.58 1001.45 1001.10 1001.25
1025.06 1024.52 1024.07 1023.50 1022.81 1022.14 1021.47 1020.68 1019.98 1019.16 1018.45 1017.78 1016.86 1015.98 1014.90 1013.97 1013.07 1012.24 1011.39 1010.47 1009.58 1009.20 1008.76 1008.43 1009.01 1009.78 1008.45 1008.26 1007.53 1006.91 1005.92 1005.75 1005.89 1005.68 1005.83 1006.00 1006.49 1006.31 1006.22 1005.35 1004.20 1003.78 1002.54 1000.90 999.36 1000.08 1000.48
1025.25 1024.75 1024.18 1023.51 1022.88 1022.20 1021.40 1020.72 1020.04 1019.21 1018.35 1017.67 1016.81 1015.65 1014.59 1013.52 1012.93 1012.21 1011.69 1011.17 1011.05 1011.16 1010.98 1010.94 1010.38 1010.32 1009.18 1008.42 1007.63 1006.72 1005.79 1005.57 1005.64 1005.79 1005.85 1005.87 1006.07 1005.18 1004.35 1004.05 1003.20 1003.32 1002.23 1000.73 999.51 999.49 1000.06
1025.44 1024.83 1024.30 1023.58 1022.88 1022.18 1021.44 1020.72 1020.01 1019.19 1018.41 1017.45 1016.58 1015.57 1014.32 1013.27 1012.69 1012.19 1012.23 1012.46 1012.87 1012.87 1012.20 1010.66 1010.37 1010.14 1009.23 1008.24 1007.07 1006.19 1005.71 1005.79 1005.76 1005.77 1005.57 1005.87 1004.80 1003.59 1004.01 1003.04 1003.02 1002.25 1002.21 1001.02 999.64 999.71 999.57
1025.58 1025.00 1024.34 1023.67 1023.01 1022.24 1021.47 1020.71 1019.91 1018.99 1018.24 1017.28 1016.15 1015.43 1014.23 1013.03 1012.39 1012.50 1012.62 1012.76 1012.37 1012.73 1013.22 1011.18 1009.88 1009.30 1008.88 1008.37 1007.19 1006.56 1006.00 1005.89 1005.69 1005.47 1005.26 1005.14 1003.32 1003.29 1003.01 1001.65 1002.29 1001.88 1001.41 1001.00 1000.55 999.71 999.53
1025.72 1025.08 1024.47 1023.78 1023.07 1022.36 1021.46 1020.61 1019.75 1018.71 1017.87 1017.02 1015.96 1014.75 1013.87 1012.99 1012.75 1013.01 1012.63 1012.43 1012.39 1012.59 1012.95 1011.53 1009.98 1009.05 1008.62 1008.40 1007.45 1006.70 1006.12 1006.02 1005.48 1005.17 1005.02 1004.15 1003.14 1002.73 1001.86 1001.07 1000.94 1001.05 1000.94 1000.85 1000.82 999.96 999.14
1025.84 1025.13 1024.45 1023.75 1022.97 1022.28 1021.32 1020.45 1019.54 1018.44 1017.50 1016.68 1015.67 1014.50 1013.48 1012.75 1013.24 1013.11 1012.48 1012.41 1012.61 1012.95 1013.08 1011.55 1010.45 1009.27 1009.31 1009.11 1008.34 1006.83 1006.49 1005.89 1005.85 1005.44 1005.65 1004.30 1002.84 1002.34 1001.55 999.61 1000.04 1000.08 999.99 1000.29 1000.26 1000.42 999.23
1025.94 1025.25 1024.51 1023.73 1022.96 1022.14 1021.17 1020.24 1019.33 1018.26 1017.31 1016.38 1015.39 1014.28 1013.56 1013.14 1013.21 1012.31 1012.12 1012.29 1012.89 1013.45 1013.74 1012.46 1011.22 1010.56 1009.50 1009.02 1008.53 1007.59 1007.06 1006.82 1005.92 1005.39 1004.59 1003.85 1002.73 1002.01 1000.88 998.98 999.34 999.67 1000.11 1000.17 1000.22 999.73 999.02
1026.07 1025.21 1024.62 1023.83 1023.14 1022.29 1021.21 1020.19 1019.33 1018.46 1017.28 1016.28 1015.21 1014.14 1013.39 1013.21 1013.22 1012.00 1012.14 1012.71 1013.81 1014.83 1014.92 1013.78 1012.39 1011.28 1010.90 1010.25 1009.21 1008.71 1008.11 1007.69 1007.29 1005.84 1004.34 1003.59 1002.46 1002.08 1001.32 999.67 999.54 999.68 999.39 999.61 999.88 997.29 996.92
1026.18 1025.43 1024.73 1024.10 1023.44 1022.62 1021.61 1020.49 1019.55 1018.68 1017.52 1016.30 1015.17 1014.11 1013.56 1013.22 1012.39 1012.05 1012.57 1013.65 1015.36 1015.81 1015.48 1014.54 1013.50 1012.51 1011.81 1011.34 1010.38 1009.68 1009.27 1008.99 1008.12 1007.30 1005.87 1005.09 1003.24 1002.34 1001.50 1000.75 999.62 999.18 999.06 998.42 997.66 996.51 997.39
1026.31 1025.59 1024.90 1024.23 1023.52 1022.73 1021.92 1020.79 1019.79 1018.70 1017.76 1016.50 1015.20 1014.64 1014.18 1013.40 1012.53 1012.40 1013.72 1015.78 1017.00 1016.63 1016.02 1014.90 1013.67 1013.33 1012.73 1012.68 1012.56 1011.36 1010.32 1009.87 1009.15 1008.22 1007.55 1006.20 1003.91 1002.28 1002.09 1000.83 1000.65 999.47 999.78 998.74 998.67 996.68 997.08
1026.44 1025.67 1024.96 1024.20 1023.50 1022.85 1022.11 1021.13 1020.08 1018.91 1017.77 1016.56 1016.11 1016.02 1015.20 1013.95 1013.33 1013.61 1015.52 1017.19 1017.41 1016.65 1015.97 1015.49 1015.30 1015.03 1014.28 1013.56 1013.12 1012.47 1011.26 1010.12 1009.61 1008.79 1008.07 1007.17 1005.44 1003.06 1002.19 1000.81 999.83 999.35 999.22 999.32 998.62 997.18 997.72
1026.45 1025.68 1024.99 1024.23 1023.56 1022.95 1022.17 1021.30 1020.35 1019.27 1018.05 1016.89 1016.92 1016.70 1015.64 1014.62 1014.32 1015.81 1017.69 1017.94 1017.32 1016.33 1015.92 1015.80 1015.79 1015.73 1015.45 1014.86 1014.20 1013.33 1012.13 1010.79 1009.85 1009.02 1008.19 1007.70 1006.95 1004.47 1003.40 1003.97 1003.28 1001.59 1001.19 1000.14 998.99 998.89 999.15
1026.49 1025.77 1025.06 1024.30 1023.59 1022.95 1022.20 1021.45 1020.49 1019.63 1018.63 1017.65 1018.18 1017.78 1016.43 1015.50 1016.51 1017.82 1018.61 1018.12 1017.30 1016.32 1015.95 1015.77 1015.77 1015.77 1015.75 1015.19 1014.57 1013.92 1012.88 1011.74 1010.47 1009.87 1008.58 1008.08 1007.25 1006.26 1005.52 1006.01 1005.92 1005.75 1006.18 1004.71 1002.53 1001.20 1001.79
1026.44 1025.80 1025.08 1024.34 1023.62 1022.94 1022.23 1021.54 1020.79 1020.01 1019.09 1018.83 1019.41 1019.22 1017.05 1016.83 1018.57 1019.27 1019.15 1018.59 1017.68 1016.75 1016.18 1016.05 1015.95 1015.88 1015.68 1015.67 1015.49 1014.13 1013.15 1011.62 1010.95 1010.25 1009.24 1008.93 1007.98 1007.22 1006.46 1007.19 1007.60 1008.50 1008.67 1007.58 1005.82 1004.37 1004.52
1026.33 1025.72 1025.03 1024.31 1023.63 1022.94 1022.28 1021.66 1020.97 1020.30 1019.46 1019.59 1020.38 1020.44 1019.36 1019.29 1019.87 1020.35 1020.06 1019.11 1018.03 1017.21 1016.70 1016.31 1016.15 1015.91 1015.90 1015.42 1015.18 1014.41 1013.80 1012.26 1011.43 1010.86 1009.71 1009.53 1009.86 1009.61 1010.31 1011.87 1012.41 1011.96 1010.74 1008.75 1007.12 1007.01 1007.91
1026.23 1025.60 1024.93 1024.29 1023.63 1022.86 1022.25 1021.61 1021.04 1020.57 1019.84 1020.16 1021.29 1022.06 1021.61 1020.89 1020.26 1020.69 1020.32 1019.48 1018.54 1017.73 1017.05 1016.59 1016.21 1016.28 1016.18 1015.54 1014.70 1014.23 1013.48 1013.00 1011.76 1011.37 1010.99 1011.24 1011.63 1011.88 1012.18 1012.08 1012.33 1013.63 1013.52 1012.83 1011.65 1011.90 1011.66
1026.19 1025.51 1024.75 1024.12 1023.51 1022.84 1022.21 1021.58 1021.00 1020.69 1020.27 1020.99 1021.86 1022.10 1021.61 1020.97 1020.80 1020.75 1020.15 1019.60 1019.03 1018.23 1017.91 1016.97 1016.63 1015.97 1015.74 1015.57 1015.08 1014.25 1013.90 1013.38 1013.23 1012.51 1012.59 1012.44 1012.47 1012.51 1012.88 1013.34 1013.67 1014.82 1015.05 1015.19 1015.28 1015.62 1015.88
1025.81 1025.23 1024.56 1024.00 1023.37 1022.77 1022.15 1021.46 1020.87 1020.55 1020.53 1021.19 1021.46 1021.35 1021.29 1020.76 1020.89 1020.89 1020.33 1019.76 1018.98 1018.63 1017.35 1017.01 1016.68 1016.04 1015.00 1014.40 1013.90 1012.87 1012.94 1013.17 1013.54 1014.08 1013.99 1013.86 1013.90 1013.50 1013.56 1013.70 1014.17 1015.76 1018.10 1018.53 1019.49 1019.70 1019.22
1025.60 1024.97 1024.21 1023.63 1023.08 1022.53 1021.90 1021.27 1020.72 1020.34 1020.49 1020.87 1020.98 1021.12 1021.19 1020.88 1020.73 1020.50 1020.02 1019.71 1019.09 1018.76 1018.19 1016.88 1016.45 1016.16 1014.78 1013.66 1012.62 1012.27 1012.59 1013.12 1013.93 1014.65 1014.79 1015.04 1014.80 1014.63 1014.95 1014.97 1017.00 1019.90 1020.29 1020.40 1020.59 1021.52 1021.64
1025.16 1024.47 1023.68 1023.10 1022.61 1022.12 1021.54 1021.02 1020.47 1020.07 1019.97 1020.22 1020.47 1020.88 1020.90 1020.52 1019.93 1019.44 1019.55 1019.54 1018.81 1018.42 1017.87 1017.06 1016.36 1015.90 1015.05 1014.29 1014.04 1014.00 1014.00 1014.26 1014.60 1015.11 1015.66 1015.75 1016.20 1016.53 1017.09 1018.53 1019.80 1020.18 1021.17 1021.75 1021.86 1022.89 1022.97
1024.61 1023.92 1023.26 1022.67 1022.13 1021.65 1021.14 1020.60 1020.06 1019.50 1019.21 1019.73 1019.98 1020.22 1020.44 1020.66 1019.40 1019.07 1019.20 1019.19 1019.03 1018.44 1017.84 1017.07 1016.30 1015.74 1015.72 1015.53 1015.71 1016.34 1016.63 1016.51 1016.28 1016.10 1016.15 1016.61 1017.24 1018.12 1019.32 1020.44 1021.54 1021.90 1021.68 1021.52 1022.07 1023.14 1023.53
1024.14 1023.44 1022.78 1022.17 1021.61 1021.06 1020.55 1020.02 1019.50 1018.88 1018.81 1019.17 1019.34 1019.51 1019.81 1020.21 1018.80 1018.73 1018.76 1018.69 1018.68 1018.38 1018.19 1017.68 1017.31 1016.74 1016.68 1017.19 1017.62 1018.16 1018.18 1017.76 1018.20 1018.81 1018.80 1018.97 1019.66 1020.86 1021.60 1022.57 1022.72 1022.73 1022.63 1022.39 1023.52 1025.28 1023.94
1023.63 1023.03 1022.34 1021.67 1021.10 1020.54 1020.01 1019.46 1018.89 1018.48 1018.56 1018.75 1018.60 1018.81 1019.45 1019.38 1018.47 1018.10 1017.98 1018.06 1017.99 1018.10 1017.89 1017.74 1017.65 1017.61 1018.01 1018.71 1019.40 1019.65 1019.67 1019.12 1019.47 1020.18 1020.90 1021.73 1022.53 1022.91 1023.39 1023.86 1024.28 1023.59 1023.31 1024.09 1025.69 1025.29 1025.03
1023.20 1022.54 1021.87 1021.17 1020.55 1019.91 1019.35 1018.87 1018.36 1018.45 1018.28 1018.10 1018.42 1018.49 1018.79 1019.22 1018.17 1017.61 1017.45 1017.27 1017.38 1017.28 1017.34 1017.45 1018.04 1018.51 1018.65 1019.43 1020.23 1020.28 1020.34 1020.23 1020.04 1020.87 1021.56 1022.61 1023.41 1023.92 1024.23 1024.52 1024.75 1024.83 1025.19 1025.63 1025.79 1025.77 1025.25
Wind_Speed
17 17 18 18 19 19 20 21 21 21 23 24 25 26 27 28 28 26 25 26 25 23 19 19 15 10 4 1 9 11 12 9 2 2 1 4 6 15 16 8 17 22 34 24 16 25 18
17 18 18 19 20 21 21 21 22 23 24 25 26 27 28 29 27 26 25 25 23 21 21 18 12 6 3 4 6 7 8 9 6 4 5 5 7 12 13 17 16 12 16 29 21 24 17
18 17 19 19 20 21 22 22 23 24 25 27 27 28 28 28 27 26 26 23 23 22 21 17 8 2 3 11 5 7 8 10 8 5 6 9 9 8 8 11 16 18 23 18 25 27 19
19 19 19 20 21 22 23 23 24 25 26 28 29 29 30 28 26 25 23 23 25 21 19 13 12 4 6 6 8 7 9 7 10 12 12 8 8 12 17 5 7 15 17 20 19 22 28
19 20 20 21 23 23 24 25 26 26 27 29 30 31 30 27 25 23 21 24 22 19 12 14 1 6 7 3 3 10 4 7 10 6 6 10 4 6 7 16 13 9 15 30 21 18 23
20 21 22 22 23 25 26 26 27 28 28 29 31 32 30 26 23 21 20 18 15 7 12 2 2 2 5 6 8 11 6 10 7 7 3 6 6 5 9 11 17 14 16 20 24 24 19
21 22 23 24 25 26 27 28 28 28 30 30 31 31 30 25 22 16 9 5 7 8 8 3 9 5 9 9 16 9 13 4 5 4 5 9 6 12 16 27 21 10 15 21 18 19 16
22 23 24 25 26 27 28 29 29 30 31 32 31 31 30 26 23 12 4 5 4 6 9 5 9 10 11 12 15 14 11 6 6 12 9 2 14 15 17 21 21 22 17 13 20 12 19
22 23 24 25 26 28 29 30 31 31 31 32 31 30 29 25 18 5 0 1 2 7 0 9 6 5 14 12 17 18 7 7 8 13 11 10 14 15 19 13 22 24 19 18 6 18 17
22 23 24 25 27 27 29 30 31 32 31 31 32 32 26 23 6 5 2 2 5 4 4 5 6 4 10 17 5 17 4 6 5 7 9 10 4 10 17 18 16 14 16 14 15 11 14
23 24 24 25 26 28 29 31 32 32 32 32 33 32 25 15 3 3 5 5 5 4 5 16 6 5 18 7 11 11 5 7 7 9 2 9 16 15 14 16 21 13 19 17 19 13 12
23 24 25 26 27 28 29 31 31 32 33 33 34 31 23 4 2 6 5 6 3 6 6 10 6 22 21 10 12 7 6 5 8 7 7 11 15 11 9 5 20 10 7 5 6 12 18
23 25 25 27 28 29 28 29 30 32 33 34 35 29 14 2 7 10 2 3 6 7 8 10 19 20 17 16 12 11 13 11 12 12 17 15 9 6 8 2 11 11 7 5 11 10 10
22 23 24 24 28 28 29 29 31 32 33 35 33 22 9 3 10 5 4 7 10 4 6 15 13 14 6 16 15 13 9 7 4 8 9 7 8 10 10 5 1 12 8 3 7 11 9
22 22 23 23 24 25 28 30 30 31 32 34 26 5 5 9 11 4 7 8 0 6 9 12 15 5 5 14 10 9 8 4 9 19 10 6 7 5 12 12 4 10 9 6 4 5 8
22 24 24 24 25 25 26 28 30 31 32 30 6 4 6 13 8 7 8 5 2 4 7 4 5 5 10 15 12 10 7 4 17 18 14 3 8 6 12 10 3 0 3 5 5 4 7
22 23 25 26 26 23 24 27 28 30 32 27 4 5 5 14 5 6 5 3 4 6 5 4 3 5 6 13 11 5 6 10 16 15 14 3 1 10 6 9 7 7 5 8 2 2 2
24 24 25 25 24 23 23 25 26 28 30 13 4 4 6 6 6 3 3 5 6 5 4 4 3 4 4 13 6 4 6 4 18 18 15 4 4 5 3 8 13 14 11 6 5 4 4
23 24 24 24 24 23 22 23 24 26 29 5 6 4 4 6 6 5 6 4 5 6 6 3 3 3 6 4 6 5 6 13 11 13 17 8 4 6 5 1 10 9 18 10 9 5 5
23 24 24 23 24 24 22 21 22 22 26 4 4 6 5 5 1 2 4 4 10 6 5 5 5 4 6 7 5 7 6 9 19 6 22 6 7 6 3 3 2 8 21 22 4 4 4
22 23 23 23 24 25 23 21 21 18 21 4 4 2 1 6 5 8 2 6 11 7 3 3 4 7 9 6 6 2 12 13 8 7 8 4 3 6 8 8 16 18 18 20 20 13 7
22 23 24 23 23 23 23 22 18 13 12 5 2 2 2 4 4 6 5 4 8 10 3 6 4 17 3 3 5 18 16 10 6 8 6 6 1 3 7 8 14 17 21 19 17 16 13
21 22 23 22 22 22 23 22 18 8 6 1 2 3 2 5 3 3 3 7 8 10 6 5 10 8 10 7 15 21 13 7 6 2 5 4 2 3 2 3 4 8 15 9 6 11 6
22 22 23 22 22 21 23 23 21 10 3 2 2 2 0 5 1 6 9 12 11 8 7 11 5 4 8 19 14 2 3 5 5 0 2 4 3 2 2 4 7 4 6 10 11 7 8
21 22 23 22 22 22 22 22 22 15 5 2 2 1 1 5 5 13 2 5 9 5 4 6 5 5 11 7 6 6 6 7 4 2 6 4 1 3 4 4 1 0 4 3 1 3 6
22 22 23 22 22 21 21 21 21 20 5 2 2 3 3 2 4 1 10 3 5 4 6 4 6 6 7 3 4 3 1 3 6 11 6 6 5 5 4 5 4 5 7 4 5 3 10
22 22 23 23 22 21 21 21 20 21 5 2 3 5 2 2 4 3 2 4 2 4 3 4 7 8 5 5 4 3 4 2 3 3 7 6 5 4 4 3 3 4 8 3 3 4 10
23 23 23 23 22 21 21 21 22 9 3 1 3 6 3 3 6 6 4 4 3 3 2 4 5 3 4 6 3 3 1 4 2 1 3 2 2 2 2 5 2 7 2 7 6 4 5
23 24 23 23 22 21 21 20 13 5 3 1 2 1 2 3 6 2 5 8 9 10 4 3 5 2 3 3 1 1 3 3 1 3 1 3 4 3 4 4 3 3 6 2 1 3 4
Wind_Direction
17 13 3 3 358 357 353 351 349 346 345 345 345 342 339 337 334 331 328 325 323 323 326 318 321 336 61 255 248 266 305 299 314 114 212 279 218 285 269 274 271 249 246 244 250 235 244
14 5 0 -0 358 354 351 350 348 347 346 344 345 341 338 336 334 330 327 323 322 327 325 323 310 317 117 258 239 262 257 290 275 180 195 196 253 245 258 273 255 283 278 249 256 244 239
8 6 4 357 354 353 352 351 349 347 346 345 344 341 337 336 334 331 325 322 320 325 325 322 356 222 197 249 221 261 270 257 250 198 245 201 207 230 188 263 266 262 267 266 254 239 236
11 6 1 358 356 355 352 350 349 348 347 345 341 341 339 337 333 331 323 321 319 323 322 321 315 129 238 241 241 274 264 259 242 244 217 231 201 229 235 252 284 237 247 244 242 233 236
8 5 1 357 359 355 352 351 348 349 348 345 342 342 340 337 334 331 326 321 322 332 327 316 303 135 257 286 277 262 284 240 241 244 221 233 205 229 248 212 246 231 234 231 232 225 230
6 4 3 359 357 357 354 352 349 347 347 346 343 343 339 336 339 333 338 324 324 4 347 8 89 51 296 307 295 285 278 244 248 263 255 234 232 225 219 214 214 231 216 231 232 210 226
8 7 3 1 360 356 355 353 350 348 347 347 345 341 338 333 340 341 354 15 16 349 53 259 273 272 294 283 298 301 299 285 254 241 238 261 242 242 246 218 217 248 243 234 237 217 221
9 7 5 1 358 358 356 353 349 349 348 345 343 342 338 331 339 349 33 65 153 227 313 266 256 245 261 315 316 323 334 266 269 262 280 262 238 250 305 218 212 213 240 264 245 227 210
8 4 3 1 359 357 354 352 349 348 348 345 341 344 338 330 336 23 67 140 205 115 32 298 249 283 331 338 317 337 318 285 258 275 276 240 255 308 303 194 204 217 214 230 294 200 223
4 3 1 357 358 357 352 350 349 347 347 347 343 340 339 334 42 324 321 270 142 116 63 319 340 314 339 330 307 317 298 260 301 280 292 278 198 293 296 217 195 214 207 225 216 240 217
4 2 2 357 359 355 353 351 350 347 346 347 343 340 340 347 244 323 275 144 131 60 40 323 328 280 323 346 294 334 330 320 280 272 32 266 292 293 282 217 192 218 194 209 216 257 205
2 3 1 1 357 354 352 349 350 348 346 346 343 339 336 348 332 242 324 142 66 43 311 334 330 324 333 343 329 297 314 337 283 295 263 301 287 265 271 255 184 149 139 156 179 215 220
3 3 1 1 359 356 351 349 350 350 345 345 342 336 330 333 304 317 43 64 39 79 353 332 321 327 321 338 326 331 340 342 9 332 353 336 314 332 345 338 170 217 115 142 208 185 201
360 1 1 358 2 0 353 349 349 348 346 343 341 332 312 268 321 330 62 54 63 334 281 303 317 310 324 358 332 325 326 333 306 323 321 347 325 355 352 335 210 180 158 246 183 182 144
358 358 356 358 355 355 356 352 350 347 346 342 341 329 344 331 330 40 65 50 204 326 307 317 322 329 339 337 322 350 325 312 357 349 350 336 285 279 332 316 244 153 192 232 301 280 118
352 351 349 349 354 352 354 354 349 349 346 344 337 352 325 340 350 42 61 101 269 267 311 307 352 352 319 340 333 350 318 291 346 344 348 304 293 0 322 326 243 179 129 163 157 227 135
345 345 347 350 350 351 352 351 351 349 346 348 34 21 308 340 42 40 74 248 280 272 344 334 291 298 276 326 306 299 295 299 354 332 331 340 176 312 320 25 323 360 20 347 295 304 111
345 344 343 343 347 348 350 352 352 352 349 356 24 18 322 5 44 23 2 297 285 301 327 299 300 261 319 316 301 298 305 252 335 336 341 345 278 299 312 84 70 74 18 326 303 68 50
342 343 343 340 340 346 352 352 353 354 353 345 353 295 326 53 41 3 319 315 293 318 328 326 286 287 310 293 335 282 321 311 335 336 356 341 329 319 351 0 38 31 350 323 247 253 50
343 342 341 339 337 340 348 351 353 357 353 58 39 360 330 22 84 47 324 301 344 312 294 310 261 294 316 311 213 282 298 315 322 306 357 11 3 25 89 124 324 10 358 6 334 40 35
340 340 339 340 338 336 338 345 349 2 355 77 29 296 175 308 333 328 259 335 334 342 283 308 313 325 324 311 302 265 312 326 307 312 353 61 78 74 119 124 67 40 25 19 47 13 47
340 336 335 339 339 335 334 336 346 8 2 70 80 355 273 267 292 328 336 314 330 329 243 299 301 321 283 211 227 302 309 315 264 327 342 347 319 215 200 150 82 53 26 30 23 12 34
335 332 331 334 334 331 332 333 336 5 61 125 235 248 256 274 302 337 274 333 306 325 284 253 310 308 310 301 308 289 286 232 221 11 309 24 328 7 19 190 282 21 7 48 66 25 346
332 328 327 330 330 328 326 327 329 323 113 170 201 259 317 274 251 295 306 300 292 303 279 296 310 315 289 310 301 297 65 72 116 273 347 318 19 335 319 4 51 134 77 99 96 47 26
328 323 322 326 326 322 323 326 327 340 193 167 182 235 227 272 255 295 314 276 295 290 270 272 289 258 303 322 359 352 348 9 342 106 8 75 81 34 89 53 251 78 59 332 13 82 21
324 321 322 321 322 320 318 319 322 318 277 179 204 176 249 318 265 148 322 257 290 302 324 273 310 313 350 358 33 49 344 271 319 334 48 19 73 94 30 95 138 224 297 272 238 169 14
320 321 320 318 319 319 318 315 313 312 130 164 210 169 220 237 270 148 212 314 267 271 242 311 323 341 9 357 15 17 308 266 327 320 326 345 359 75 15 88 304 269 295 296 63 288 339
318 318 316 318 319 319 317 315 313 338 48 186 224 177 179 239 283 260 249 215 246 274 295 300 2 351 354 29 36 309 326 276 338 188 176 133 69 329 46 63 306 345 10 91 228 302 304
317 319 317 318 318 318 317 317 342 14 340 241 231 202 161 221 246 178 232 254 255 250 239 200 187 250 213 63 2 344 291 335 240 273 160 336 173 192 135 212 220 347 120 251 63 258 312